Regional Weather Roundup
Issued by NWS Boston, MA

Current Version | Previous Version | Text Only | Print | Product List | Glossary Off
Versions: 1 2 3 4 5 6 7 8 9 10 11 12 13 14 15 16 17 18 19 20 21 22 23 24 25 26 27
000 ASUS41 KBOX 290110 RWRBOX REGIONAL WEATHER ROUNDUP NATIONAL WEATHER SERVICE TAUNTON MA 900 PM EDT TUE MAR 28 2017 NOTE: "FAIR" INDICATES FEW OR NO CLOUDS BELOW 12,000 FEET WITH NO SIGNIFICANT WEATHER AND/OR OBSTRUCTIONS TO VISIBILITY. MAZALL-290200- EASTERN MASSACHUSETTS CITY SKY/WX TMP DP RH WIND PRES REMARKS BOSTON RAIN 39 38 96 NE7 29.98R FOG BEVERLY LGT RAIN 39 38 96 CALM 29.97R FOG LAWRENCE LGT RAIN 35 35 100 NE3 29.99R BEDFORD LGT RAIN 38 35 89 NE7 29.96R FOG BLUE HILL N/A 36 35 96 NE9 29.92S WCI 29 NORWOOD LGT RAIN 40 38 93 N3 29.96R FOG MARSHFIELD CLOUDY 39 39 100 VRB5 29.96R PLYMOUTH LGT RAIN 39 37 92 NE7 29.95R TAUNTON LGT RAIN 40 38 93 CALM 29.95R FOG NEW BEDFORD LGT RAIN 40 38 93 NE3 29.94R $$ MAZALL-290200- CAPE COD AND THE ISLANDS CITY SKY/WX TMP DP RH WIND PRES REMARKS FALMOUTH CLOUDY 39 39 100 MISG 29.94S HYANNIS LGT RAIN 41 40 96 E5 29.92R CHATHAM CLOUDY 41 41 100 E8 29.95R PROVINCETOWN LGT RAIN 40 39 97 E7 29.96S NANTUCKET LGT RAIN 41 39 93 E10 29.93R MARTHAS VNYRD LGT RAIN 40 39 97 NE10 29.93R $$ MAZALL-290200- CENTRAL AND WESTERN MASSACHUSETTS CITY SKY/WX TMP DP RH WIND PRES REMARKS WORCESTER RAIN 36 34 92 NE7 29.93R VSB 1/2 WCI 30 FITCHBURG RAIN 38 37 97 N3 29.97S FOG ORANGE RAIN 37 37 100 CALM 29.96R FOG SPRINGFIELD LGT RAIN 40 39 95 N3 29.94R WESTFIELD RAIN 41 41 100 CALM 29.95R FOG NORTH ADAMS LGT RAIN 41 41 100 CALM 29.94R FOG PITTSFIELD LGT RAIN 40 39 97 CALM 29.92R FOG $$ RIZALL-290200- RHODE ISLAND CITY SKY/WX TMP DP RH WIND PRES REMARKS PROVIDENCE LGT RAIN 40 38 93 NE8 29.95R NEWPORT LGT RAIN 40 40 100 NE8 29.93R BLOCK ISLAND LGT RAIN 39 39 100 NE13 29.92S WCI 31 SMITHFIELD LGT RAIN 38 37 97 NE6 29.94R WESTERLY LGT RAIN 42 42 100 E5 29.93S FOG $$ CTZALL-290200- CONNECTICUT CITY SKY/WX TMP DP RH WIND PRES REMARKS BRADLEY INTL RAIN 42 41 96 N5 29.95R FOG HARTFORD LGT RAIN 43 42 97 N6 29.95R FOG BRIDGEPORT LGT RAIN 41 39 93 NE3 29.94R FOG DANBURY RAIN 43 42 97 E3 29.94R FOG GROTON LGT RAIN 42 40 92 E3 29.92R FOG NEW HAVEN LGT RAIN 41 41 100 CALM 29.93R FOG CHESTER NOT AVBL MERIDEN LGT RAIN 45 42 89 N3 29.94R FOG WILLIMANTIC LGT RAIN 43 42 97 N5 29.95R FOG OXFORD FOG 41 37 87 N8 29.93R VSB 1 $$ MEZ002-015-021-024-NHZ003-005-008-011-012-014-VTZ005-008-290200- NORTHERN NEW ENGLAND CITY SKY/WX TMP DP RH WIND PRES REMARKS PORTLAND ME CLOUDY 36 35 96 NE7 30.00R FOG WCI 30 BANGOR ME LGT RAIN 34 34 100 S3 30.02R FOG CONCORD NH LGT RAIN 37 35 92 CALM 29.97R FOG MANCHESTER NH LGT RAIN 38 35 89 CALM 29.97R FOG NASHUA NH RAIN 37 37 100 CALM 29.99R PORTSMOUTH NH LGT RAIN 37 35 96 NE5 29.97R FOG JAFFREY NH LGT RAIN 36 35 96 CALM 29.95R FOG KEENE NH LGT RAIN 37 37 100 CALM 29.97R BURLINGTON VT LGT RAIN 37 35 92 N8 30.04R WCI 31 MT. WASHINGTON FOG 34 34 100 W25 N/A VSB 0 WCI 21 $$ NYZ052-076-290200- EASTERN NEW YORK CITY SKY/WX TMP DP RH WIND PRES REMARKS ALBANY LGT RAIN 46 42 86 CALM 29.96R FOG NEW YORK CITY LGT RAIN 43 39 86 NE13 29.93R FOG $$ ANZALL-290200- MARINE OBSERVATIONS STATION/POSITION TIME TEMP WIND PRES VSBY WAVE AIR SEA DIR/SP/G HT/PER (UTC) (F) (DEG/KT/KT) (MB) (MI) (FT/S) BOSTON BUOY 2350 39 40 60/ 6/ 8 1014.0 3/ 6 BUZZARDS BAY 0000 38 40/ 11/ 12 1013.7R NANTUCKET SOUND 0050 39 1013.8R 1/ 3 MASS BAY-STELLWA 0004 39 39 60/ 8/ 8 1013.5F 3/ 6 ISLE OF SHOALS 0000 38 20/ 8/ 8 1014.8F S OF BLOCK IS 0055 40 N/A 4/ 8 $$ ......................KEY......................... SKY/WX - SKY CONDITION/PRESENT WEATHER TMP - TEMPERATURE IN FAHRENHEIT DWPT - DEWPOINT IN FAHRENHEIT RH - RELATIVE HUMIDITY IN PERCENT WIND - DIRECTION AND SPEED IN MPH PRES - MEAN SEA LEVEL PRESSURE IN INCHES OF HG WCI - WIND CHILL INDEX VSB - VISIBILITY IN MILES HX - HEAT INDEX TC - TEMPERATURE IN CELSIUS VRB - VARIABLE WIND DIRECTION N/A - NOT AVAILABLE

USA.gov is the U.S. government's official web portal to all federal, state and local government web resources and services.